Zurück zum Katalog

STARLINK-36762

AktivKommunikationVLEO
NORAD 67868·PAYLOAD·🇺🇸 United States

Gestartet Feb 20, 2026 von Vandenberg Space Force Base

Loading…

Nächste Überflüge (nächste 24 Stunden)

TLE

AktuellSource: CelesTrak SupGP

Epoche: Sep 14, 2026, 22:49 UTC

1 67868C 26034U   26257.95118056  .00021352  00000+0  63086-3 0  2572
2 67868  53.1608  43.4448 0001269  71.9084  29.1940 15.34379302    17

Verfolge STARLINK-36762 in Echtzeit mit AllMySat

Download on the App Store